Other Public Products
Issued by NWS Charleston, SC

Current Version | Previous Version | Graphics & Text | Print | Product List | Glossary On
Versions: 1 2 3 4 5 6 7 8 9 10 11 12 13 14 15 16 17 18 19 20 21 22 23 24 25 26 27 28 29 30 31 32 33 34 35 36 37 38 39 40 41 42 43 44 45 46 47 48 49 50
000 FPUS82 KCHS 241227 OPUCHS TEST...KCHS/KSAV Gateway Observations...TEST National Weather Service Charleston SC 800 AM EDT FRI MAR 24 2017 NOTE: "fair" indicates few or no clouds below 12,000 feet with no significant weather and/or obstructions to visibility. SCZ050-WAZ558-NCZ071-TXZ119-213-PAZ071-DCZ001-FLZ074-172-MI076- NYZ176-178-MAZ016-IL014-TNZ027-NJZ106-GAZ044-MD014-241300- ...Gateway Observations for Charleston International... CITY SKY/WX TMP DP RH WIND PRES REMARKS Chas Airport PTCLDY 49 47 93 N3 30.48R 6HR MIN TEMP: 47; 6HR MAX TEMP: 50; Seattle CLOUDY 47 43 86 SE6 29.78F 6HR MIN TEMP: 45; 6HR MAX TEMP: 47; 6HR PCP: 0.12; Charlotte CLOUDY 44 35 70 CALM 30.50S 6HR MIN TEMP: 39; 6HR MAX TEMP: 46; Dallas DFW LGT RAIN 68 60 75 S16G24 29.85F 6HR MIN TEMP: 68; 6HR MAX TEMP: 70; 6HR PCP: TRACE; Dallas Love MOCLDY 69 59 70 S21G28 29.88S 6HR MIN TEMP: 69; 6HR MAX TEMP: 70; Philladelphia PTSUNNY 33 24 69 SW6 30.48F WCI 28 6HR MIN TEMP: 32; 6HR MAX TEMP: 34; Wash National CLOUDY 38 25 59 S12 30.48R WCI 30 6HR MIN TEMP: 36; 6HR MAX TEMP: 38; Baltimore CLOUDY 35 23 61 S6 30.46R WCI 30 6HR MIN TEMP: 30; 6HR MAX TEMP: 35; Miami MOCLDY 72 62 71 E16 30.24R 6HR MIN TEMP: 69; 6HR MAX TEMP: 72; 6HR PCP: 0.06; Detroit CLOUDY 44 38 79 SW12 30.03R 6HR MIN TEMP: 38; 6HR MAX TEMP: 46; 6HR PCP: 0.14; Newark CLOUDY 36 26 67 S10 30.47F WCI 28 6HR MIN TEMP: 31; 6HR MAX TEMP: 36; Laguardia CLOUDY 39 25 57 SW9 30.47F WCI 33 6HR MIN TEMP: 38; 6HR MAX TEMP: 40; J F K PTSUNNY 38 31 76 SW14 30.50S WCI 30 6HR MIN TEMP: 32; 6HR MAX TEMP: 38; Boston Logan CLOUDY 31 14 49 S8 30.49F WCI 23 6HR MIN TEMP: 27; 6HR MAX TEMP: 32; Ft. Lauderdale MOCLDY 71 62 73 NE16 30.24R 6HR MIN TEMP: 70; 6HR MAX TEMP: 71; 6HR PCP: TRACE; Chicago O`Hare CLOUDY 52 42 69 S13 29.91R 6HR MIN TEMP: 44; 6HR MAX TEMP: 53; Chicago Midway CLOUDY 52 44 74 S16G23 29.94R 6HR MIN TEMP: 47; 6HR MAX TEMP: 53; Houston Bush CLOUDY 71 63 75 S14 29.96R 6HR MIN TEMP: 70; 6HR MAX TEMP: 71; Houston Hobby CLOUDY 69 64 84 SE12 29.96R 6HR MIN TEMP: 69; 6HR MAX TEMP: 70; Nashville CLOUDY 61 48 62 S14 30.25R 6HR MIN TEMP: 59; 6HR MAX TEMP: 61; Atlanta MOCLDY 56 46 69 SE9 30.43R 6HR MIN TEMP: 56; 6HR MAX TEMP: 59; $$ GAZ044-118-TXZ119-213-NCZ071-DCZ001-MDZ014-506-PAZ021-071-NJZ106- NYZ176-178-MAZ106-OHZ011-021-055-MIZ076-KYZ091-ILZ014-INZ047- MNZ060-ONZ431-241300- ...Gateway Observations for Savannah International... CITY SKY/WX TMP DP RH WIND PRES REMARKS Savannah Arpt PTCLDY 48 45 89 N5 30.47R 6HR MIN TEMP: 47; 6HR MAX TEMP: 50; Atlanta MOCLDY 56 46 69 SE9 30.43R 6HR MIN TEMP: 56; 6HR MAX TEMP: 59; Charlotte CLOUDY 44 35 70 CALM 30.50S 6HR MIN TEMP: 39; 6HR MAX TEMP: 46; Dallas DFW LGT RAIN 68 60 75 S16G24 29.85F 6HR MIN TEMP: 68; 6HR MAX TEMP: 70; 6HR PCP: TRACE; Houston Bush CLOUDY 71 63 75 S14 29.96R 6HR MIN TEMP: 70; 6HR MAX TEMP: 71; Wash National CLOUDY 38 25 59 S12 30.48R WCI 30 6HR MIN TEMP: 36; 6HR MAX TEMP: 38; Wash Dulles MOCLDY 36 25 64 S8 30.44R WCI 30 6HR MIN TEMP: 33; 6HR MAX TEMP: 36; Baltimore CLOUDY 35 23 61 S6 30.46R WCI 30 6HR MIN TEMP: 30; 6HR MAX TEMP: 35; Philadelphia PTSUNNY 33 24 69 SW6 30.48F WCI 28 6HR MIN TEMP: 32; 6HR MAX TEMP: 34; Newark CLOUDY 36 26 67 S10 30.47F WCI 28 6HR MIN TEMP: 31; 6HR MAX TEMP: 36; Laguardia CLOUDY 39 25 57 SW9 30.47F WCI 33 6HR MIN TEMP: 38; 6HR MAX TEMP: 40; J F K PTSUNNY 38 31 76 SW14 30.50S WCI 30 6HR MIN TEMP: 32; 6HR MAX TEMP: 38; Boston CLOUDY 31 14 49 S8 30.49F WCI 23 6HR MIN TEMP: 27; 6HR MAX TEMP: 32; Pittsburg CLOUDY 43 38 82 S10 30.21F 6HR MIN TEMP: 38; 6HR MAX TEMP: 45; 6HR PCP: 0.25; Akron CLOUDY 46 34 62 S16 30.16R 6HR MIN TEMP: 39; 6HR MAX TEMP: 46; 6HR PCP: 0.30; Cleveland CLOUDY 51 33 50 S17G29 30.12S 6HR MIN TEMP: 42; 6HR MAX TEMP: 51; 6HR PCP: 0.30; Cincinnati MOCLDY 51 41 68 S9 30.17R 6HR MIN TEMP: 49; 6HR MAX TEMP: 54; Columbus CLOUDY 51 37 57 S10 30.20R Detroit CLOUDY 44 38 79 SW12 30.03R 6HR MIN TEMP: 38; 6HR MAX TEMP: 46; 6HR PCP: 0.14; Chicago O`Hare CLOUDY 52 42 69 S13 29.91R 6HR MIN TEMP: 44; 6HR MAX TEMP: 53; Minneapolis CLOUDY 38 35 89 N9G17 29.90S FOG WCI 31 6HR MIN TEMP: 38; 6HR MAX TEMP: 39; 6HR PCP: 0.01; Indianapolis MOCLDY 54 45 71 S9 30.09R 6HR MIN TEMP: 52; 6HR MAX TEMP: 56; Toronto Canada LGT RAIN 34 32 93 SE5 30.08F WCI 30 $$

USA.gov is the U.S. government's official web portal to all federal, state and local government web resources and services.